Location: Drocourt
(49.0571°N, 1.7669°E)
Time: 14:35:37
(UTC+00:00)

SR - Pass Details

Date: 21 April 2024
Orbit: 579 x 859 km, 66.7° (Epoch: 28 May)

Event Time Altitude Azimuth Distance (km) Brightness Sun altitude
Rises 02:17:34 0° 228° (SW) 3,336 - -21.0°
Reaches altitude 10° 02:20:08 10° 233° (SW) 2,372 - -20.7°
Exits shadow 02:23:38 37° 254° (WSW) 1,196 ? -20.4°
Maximum altitude 02:25:28 55° 311° (NW) 912 ? -20.2°
Drops below altitude 10° 02:30:26 10° 29° (NNE) 2,204 ? -19.6°
Sets 02:32:45 0° 34° (NE) 3,081 ? -19.4°
